Weather reports worldwide

Advertisment
Berlin-Schönefeld, Germany (10385): temperature & dewpoint: 10.08.2018 13:00:00 - 16.08.2018 13:00:00 (CEST)Berlin-Schönefeld, Germany (10385): temperature 5cm & temperature -5cm: 10.08.2018 13:00:00 - 16.08.2018 13:00:00 (CEST)Berlin-Schönefeld, Germany (10385): temperature -20cm & temperature -100cm: 10.08.2018 13:00:00 - 16.08.2018 13:00:00 (CEST)Berlin-Schönefeld, Germany (10385): wind speed & gusts: 10.08.2018 13:00:00 - 16.08.2018 13:00:00 (CEST)Berlin-Schönefeld, Germany (10385): wind direction: 10.08.2018 13:00:00 - 16.08.2018 13:00:00 (CEST)Berlin-Schönefeld, Germany (10385): reduced air pressure: 10.08.2018 13:00:00 - 16.08.2018 13:00:00 (CEST)Berlin-Schönefeld, Germany (10385): visibility: 10.08.2018 13:00:00 - 16.08.2018 13:00:00 (CEST)Berlin-Schönefeld, Germany (10385): sunshine duration: 10.08.2018 13:00:00 - 16.08.2018 13:00:00 (CEST)Berlin-Schönefeld, Germany (10385): precipitation: 10.08.2018 13:00:00 - 16.08.2018 13:00:00 (CEST)
Date & Time tt [°C] td [°C] tt 5cm [°C] tt -5cm [°C] tt -20cm [°C] tt -100cm [°C] ff [km/h] ff [kn] fx [km/h] fx [kn] dd ppp [hPa] vv [km] sd [min] rr [mm]
16.08.2018 13:00:00 26,7 11,6 31,9 31,7 23,3 21,0 13 7 25 14 S 1017,8 50 60 0,0
16.08.2018 12:00:00 26,2 11,3 31,9 29,4 22,4 21,0 13 7 24 13 SSE 1018,3 10 60 0,0
16.08.2018 11:00:00 24,9 12,9 31,0 26,7 21,6 21,0 9 5 22 12 - 1018,8 10 60 0,0
16.08.2018 10:00:00 23,2 13,6 27,2 23,9 21,2 21,0 10 6 16 9 ESE 1019,3 50 60 0,0
16.08.2018 09:00:00 21,0 13,9 23,6 21,0 21,0 21,0 8 4 11 6 SE 1019,3 10 60 0,0
16.08.2018 08:00:00 18,1 13,9 18,5 18,9 21,1 21,0 4 2 8 4 SW 1019,6 35 60 0,0
16.08.2018 07:00:00 14,7 12,6 13,2 17,8 21,4 21,0 4 2 5 3 SSE 1019,7 40 26 0,0
16.08.2018 06:00:00 13,6 12,4 11,1 18,0 21,7 21,0 5 3 8 4 SSE 1019,7 35 0 0,0
16.08.2018 05:00:00 13,5 11,8 10,7 18,4 22,1 21,0 2 1 5 3 - 1019,7 10 0 0,0
16.08.2018 04:00:00 13,7 12,3 11,0 19,0 22,5 21,1 2 1 5 3 - 1019,7 10 0 0,0
16.08.2018 03:00:00 14,7 12,4 11,9 19,5 22,9 21,1 2 1 8 4 ESE 1019,8 10 0 0,0
16.08.2018 02:00:00 15,5 12,7 12,3 20,1 23,3 21,1 4 2 5 3 S 1019,8 10 0 0,0
16.08.2018 01:00:00 16,1 12,7 12,4 20,9 23,8 21,1 4 2 5 3 SE 1019,7 10 0 0,0
16.08.2018 00:00:00 17,5 12,7 13,7 21,8 24,2 21,1 4 2 5 3 S 1019,7 60 0 0,0
15.08.2018 23:00:00 19,6 12,7 14,6 22,9 24,6 21,1 2 1 8 4 - 1019,5 10 0 0,0
15.08.2018 22:00:00 21,2 12,6 19,5 24,1 25,0 21,1 7 4 13 7 NW 1019,3 50 0 0,0
15.08.2018 21:00:00 22,8 13,5 21,9 25,5 25,3 21,1 9 5 14 8 NW 1018,9 10 0 0,0
15.08.2018 20:00:00 23,2 12,8 23,0 26,5 25,5 21,1 11 6 18 10 NNW 1018,3 50 0 0,0
15.08.2018 19:00:00 23,7 12,1 24,0 27,7 25,6 21,1 15 8 21 11 W 1018,2 10 0 0,0
15.08.2018 18:00:00 24,2 11,4 24,9 29,0 25,6 21,1 18 10 29 16 WNW 1018,3 45 15 0,0
15.08.2018 17:00:00 24,3 12,1 25,9 30,6 25,3 21,1 22 12 35 19 W 1018,1 10 36 0,0
15.08.2018 16:00:00 24,5 11,6 26,5 31,4 24,7 21,2 18 10 34 18 W 1018,0 45 49 0,0
15.08.2018 15:00:00 24,9 12,4 29,5 30,9 24,1 21,2 18 10 35 19 W 1018,2 10 56 0,0
15.08.2018 14:00:00 24,6 11,8 28,5 29,3 23,4 21,2 18 10 34 18 W 1018,3 10 30 0,0
15.08.2018 13:00:00 23,2 12,5 27,3 29,1 22,7 21,2 22 12 35 19 W 1018,5 45 51 0,0
15.08.2018 12:00:00 23,0 12,7 27,3 26,8 22,0 21,2 18 10 34 18 WNW 1018,5 10 58 0,0
15.08.2018 11:00:00 21,2 11,7 24,6 24,3 21,6 21,2 23 12 35 19 WNW 1018,5 45 50 0,0
15.08.2018 10:00:00 19,1 13,0 20,5 22,1 21,4 21,2 18 10 28 15 W 1018,0 45 24 0,0
15.08.2018 09:00:00 17,9 14,0 18,9 20,5 21,4 21,2 19 10 28 15 W 1017,4 45 10 0,0
15.08.2018 08:00:00 17,3 14,0 17,7 19,9 21,5 21,2 17 9 28 15 W 1017,1 45 0 0,0
15.08.2018 07:00:00 17,3 14,2 17,4 19,7 21,6 21,2 18 10 26 14 W 1016,5 40 0 0,0
15.08.2018 06:00:00 17,7 14,2 17,6 19,8 21,7 21,2 16 9 29 16 W 1015,8 10 0 0,0
15.08.2018 05:00:00 18,0 14,3 17,7 19,9 21,9 21,2 18 10 29 16 W 1015,4 40 0 0,0
15.08.2018 04:00:00 18,2 15,0 18,0 20,1 22,1 21,2 20 11 33 18 W 1015,2 40 0 0,0
15.08.2018 03:00:00 18,4 15,2 18,2 20,2 22,3 21,2 22 12 31 17 WNW 1014,6 40 0 0,0
15.08.2018 02:00:00 18,1 16,0 17,8 20,3 22,5 21,2 14 8 21 11 W 1014,5 50 0 0,0
15.08.2018 01:00:00 18,1 16,0 17,4 20,7 22,7 21,2 15 8 27 15 W 1014,5 10 0 0,0
15.08.2018 00:00:00 19,0 16,1 18,7 21,0 23,0 21,3 22 12 34 18 W 1014,0 40 0 0,0
14.08.2018 23:00:00 19,2 16,3 18,9 21,2 23,3 21,3 16 9 35 19 W 1013,4 10 0 0,0
14.08.2018 22:00:00 19,5 16,6 19,0 21,6 23,6 21,3 22 12 34 18 W 1012,9 10 0 0,0
14.08.2018 21:00:00 19,5 16,9 18,7 22,4 24,0 21,3 22 12 34 18 WSW 1012,3 10 4 0,0
14.08.2018 20:00:00 20,2 17,3 19,2 23,6 24,2 21,3 16 9 25 14 W 1011,6 10 44 0,0
14.08.2018 19:00:00 19,8 17,4 19,4 24,9 24,4 21,3 16 9 35 19 W 1011,4 10 11 0,4
14.08.2018 18:00:00 22,6 14,6 24,1 26,4 24,3 21,3 15 8 38 21 WSW 1010,9 10 23 0,0
14.08.2018 17:00:00 24,3 13,6 26,4 27,4 24,0 21,3 22 12 42 23 SW 1010,6 10 27 0,0
14.08.2018 16:00:00 25,0 13,3 27,8 26,6 23,8 21,3 26 14 41 22 WSW 1010,5 45 11 0,0
14.08.2018 15:00:00 23,3 12,8 24,6 25,8 23,7 21,3 24 13 40 21 WSW 1010,7 10 0 0,0
14.08.2018 14:00:00 23,5 12,6 26,2 26,4 23,4 21,3 21 11 33 18 WSW 1010,5 10 1 0,0
14.08.2018 13:00:00 22,4 12,9 23,7 25,2 23,2 21,3 19 10 41 22 W 1010,3 45 0 0,0
14.08.2018 12:00:00 22,3 13,2 24,6 25,6 22,8 21,3 20 11 33 18 W 1010,2 45 8 0,0
14.08.2018 11:00:00 21,9 13,2 23,5 25,1 22,4 21,3 21 11 38 21 W 1010,1 10 34 0,0
14.08.2018 10:00:00 21,4 13,7 23,0 23,5 22,2 21,3 27 14 35 19 W 1009,9 45 48 0,0
14.08.2018 09:00:00 19,4 13,8 20,5 21,6 22,1 21,3 22 12 31 17 WSW 1009,7 10 54 0,0
14.08.2018 08:00:00 18,3 13,9 18,9 20,0 22,3 21,3 17 9 23 13 WSW 1009,5 50 60 0,0
14.08.2018 07:00:00 17,0 13,5 16,5 19,5 22,6 21,3 11 6 18 10 SW 1009,1 10 15 0,0
14.08.2018 06:00:00 17,0 13,5 15,7 19,9 22,9 21,3 12 6 18 10 SW 1008,7 50 0 0,0
14.08.2018 05:00:00 17,6 13,8 16,2 20,5 23,2 21,3 14 7 18 10 WSW 1008,3 55 0 0,0
14.08.2018 04:00:00 18,8 14,3 17,8 21,1 23,5 21,3 13 7 22 12 SW 1007,9 10 0 0,0
14.08.2018 03:00:00 19,8 14,9 19,0 21,3 23,8 21,3 11 6 24 13 SW 1007,6 10 0 0,0
14.08.2018 02:00:00 19,1 15,3 17,4 21,7 24,1 21,3 9 5 21 11 S 1007,4 10 0 0,0
14.08.2018 01:00:00 18,9 15,5 17,5 22,3 24,5 21,3 14 7 21 11 S 1007,6 55 0 0,0
14.08.2018 00:00:00 19,3 15,8 18,0 22,9 24,9 21,3 8 4 21 11 S 1007,6 10 0 0,0
13.08.2018 23:00:00 20,3 15,8 19,2 23,5 25,3 21,3 13 7 21 11 SSW 1007,5 10 0 0,0
13.08.2018 22:00:00 20,4 15,8 19,1 24,4 25,8 21,3 14 7 18 10 S 1007,5 55 0 0,0
13.08.2018 21:00:00 21,4 16,0 20,7 25,4 26,2 21,3 9 5 18 10 S 1007,4 10 0 0,0
13.08.2018 20:00:00 22,5 14,9 21,7 26,4 26,6 21,4 5 3 13 7 S 1007,1 10 0 0,0
13.08.2018 19:00:00 22,7 15,0 20,6 28,2 27,0 21,4 16 9 51 27 SSW 1007,2 45 0 0,1
13.08.2018 18:00:00 27,0 10,2 27,2 30,3 27,1 21,4 36 19 53 28 W 1007,1 55 0 0,0
13.08.2018 17:00:00 30,4 7,6 30,8 32,0 26,9 21,4 22 12 31 17 W 1006,2 55 1 0,0
13.08.2018 16:00:00 31,0 5,5 32,2 33,6 26,5 21,4 23 12 31 17 WSW 1006,0 55 4 0,0
13.08.2018 15:00:00 30,9 4,7 33,4 35,4 25,6 21,4 15 8 26 14 SW 1006,2 55 43 0,0
13.08.2018 14:00:00 30,8 5,7 36,6 34,5 24,6 21,4 9 5 29 15 - 1006,9 10 60 0,0
13.08.2018 13:00:00 30,2 6,3 38,7 32,5 23,5 21,4 9 5 27 15 SSW 1007,1 10 60 0,0
13.08.2018 12:00:00 28,8 7,3 37,0 30,2 22,5 21,4 6 3 15 8 SE 1007,7 50 60 0,0
13.08.2018 11:00:00 27,6 8,6 33,1 27,3 21,7 21,4 5 3 11 6 - 1008,1 10 60 0,0
13.08.2018 10:00:00 24,5 8,9 27,2 24,0 21,2 21,4 4 2 9 5 - 1008,3 10 60 0,0
13.08.2018 09:00:00 21,6 9,4 23,5 21,0 21,0 21,4 5 3 9 5 SSE 1008,8 10 60 0,0
13.08.2018 08:00:00 18,2 8,9 19,1 18,6 21,1 21,5 8 4 13 7 SE 1009,2 10 60 0,0
13.08.2018 07:00:00 14,9 10,4 13,2 17,3 21,4 21,5 4 2 8 4 - 1009,1 10 36 0,0
13.08.2018 06:00:00 12,5 9,1 8,6 17,4 21,8 21,5 7 4 8 4 E 1009,2 50 0 0,0
13.08.2018 05:00:00 13,5 9,1 8,6 18,0 22,2 21,5 4 2 8 4 E 1009,7 10 0 0,0
13.08.2018 04:00:00 13,9 9,3 9,7 18,8 22,6 21,5 5 3 8 4 E 1010,1 10 0 0,0
13.08.2018 03:00:00 14,3 9,3 10,7 19,3 23,0 21,5 4 2 8 4 E 1010,7 55 0 0,0
13.08.2018 02:00:00 15,3 9,0 11,3 20,0 23,5 21,5 4 2 5 3 E 1011,1 10 0 0,0
13.08.2018 01:00:00 15,9 8,6 10,7 20,7 23,9 21,5 5 3 8 4 E 1011,4 55 0 0,0
13.08.2018 00:00:00 17,3 9,5 14,3 21,7 24,4 21,5 4 2 12 6 ESE 1011,7 60 0 0,0
12.08.2018 23:00:00 17,8 9,0 14,1 22,5 24,9 21,5 4 2 8 4 - 1012,1 10 0 0,0
12.08.2018 22:00:00 19,7 7,5 15,1 23,9 25,4 21,6 2 1 9 5 ESE 1012,3 10 0 0,0
12.08.2018 21:00:00 23,0 3,9 17,7 25,4 25,8 21,6 2 1 8 4 SW 1012,6 60 0 0,0
12.08.2018 20:00:00 25,0 4,3 23,2 27,2 26,0 21,6 9 5 18 10 W 1012,8 60 25 0,0
12.08.2018 19:00:00 26,4 3,3 26,2 28,5 26,2 21,6 10 6 25 13 WSW 1013,2 60 59 0,0
12.08.2018 18:00:00 27,1 3,5 28,1 30,2 26,1 21,6 17 9 29 16 WSW 1013,6 60 60 0,0
12.08.2018 17:00:00 26,9 4,1 30,3 32,6 25,6 21,7 18 10 29 16 WSW 1014,5 60 60 0,0
12.08.2018 16:00:00 26,5 4,7 31,5 32,8 24,9 21,7 10 5 35 19 WSW 1015,3 60 60 0,0
12.08.2018 15:00:00 25,5 5,1 30,9 32,1 24,1 21,7 20 11 35 19 SW 1016,1 55 60 0,0
12.08.2018 14:00:00 24,3 4,8 30,6 31,0 23,3 21,7 18 10 37 20 SW 1016,9 10 60 0,0
12.08.2018 13:00:00 24,2 6,3 29,6 29,5 22,4 21,7 19 10 38 21 W 1017,6 50 60 0,0
12.08.2018 12:00:00 23,4 5,9 28,2 27,6 21,5 21,7 22 12 35 19 SW 1018,6 50 59 0,0
12.08.2018 11:00:00 21,8 8,0 27,4 25,0 20,8 21,8 14 8 29 16 SSW 1019,2 50 60 0,0
12.08.2018 10:00:00 20,2 9,0 23,5 22,3 20,3 21,8 16 8 22 12 SSW 1019,4 50 60 0,0
12.08.2018 09:00:00 17,6 9,1 20,5 19,4 20,1 21,8 8 5 15 8 SSW 1019,8 50 60 0,0
12.08.2018 08:00:00 15,2 8,7 16,2 17,2 20,2 21,8 4 2 11 6 SSW 1020,1 50 60 0,0
12.08.2018 07:00:00 12,3 8,2 11,4 16,1 20,5 21,8 9 5 15 8 SSW 1020,7 50 37 0,0
12.08.2018 06:00:00 11,3 7,8 9,8 16,1 20,8 21,8 9 5 18 10 S 1020,7 50 0 0,0
12.08.2018 05:00:00 11,3 8,0 9,1 16,4 21,2 21,8 12 6 16 8 SW 1020,6 50 0 0,0
12.08.2018 04:00:00 11,8 8,0 7,2 16,9 21,6 21,8 4 2 11 6 - 1020,5 10 0 0,0
12.08.2018 03:00:00 12,3 8,0 9,6 17,6 22,0 21,9 6 4 15 8 W 1020,7 60 0 0,0
12.08.2018 02:00:00 12,7 7,8 10,3 18,3 22,5 21,9 5 3 15 8 SW 1020,8 10 0 0,0
12.08.2018 01:00:00 14,4 8,1 12,0 19,0 22,9 21,9 9 5 15 8 WSW 1020,8 10 0 0,0
12.08.2018 00:00:00 14,6 7,9 12,6 19,9 23,3 21,9 13 7 18 10 WSW 1020,9 60 0 0,0
11.08.2018 23:00:00 15,9 7,5 14,1 21,0 23,7 21,9 13 7 33 18 W 1020,9 10 0 0,0
11.08.2018 22:00:00 18,8 7,4 17,9 22,0 24,0 21,9 22 12 34 18 W 1020,7 10 0 0,0
11.08.2018 21:00:00 19,7 7,6 18,6 22,9 24,4 22,0 23 12 35 19 WNW 1020,2 60 4 0,0
11.08.2018 20:00:00 21,3 5,9 20,9 24,1 24,6 22,0 26 14 50 27 W 1019,3 60 32 0,0
11.08.2018 19:00:00 22,2 4,6 22,2 25,4 24,7 22,0 35 19 50 27 W 1019,0 60 58 0,0
11.08.2018 18:00:00 22,9 4,5 23,6 26,7 24,7 22,0 34 18 55 30 W 1018,6 10 56 0,0
11.08.2018 17:00:00 23,8 5,0 26,4 28,5 24,3 22,0 33 18 51 27 W 1018,7 60 54 0,0
11.08.2018 16:00:00 24,1 5,5 28,3 28,5 23,8 22,0 30 16 55 30 W 1018,8 60 53 0,0
11.08.2018 15:00:00 23,0 5,7 26,9 27,2 23,4 22,1 39 21 53 28 WSW 1019,1 60 37 0,0
11.08.2018 14:00:00 21,5 7,6 24,4 25,8 23,0 22,1 24 13 44 24 W 1019,5 10 19 0,0
11.08.2018 13:00:00 22,3 8,4 26,7 25,4 22,5 22,1 23 12 40 21 W 1019,3 60 18 0,0
11.08.2018 12:00:00 22,4 7,9 25,9 23,9 22,1 22,1 23 12 39 21 W 1019,5 60 11 0,0
11.08.2018 11:00:00 21,3 7,6 22,9 22,4 21,8 22,1 24 13 37 20 W 1019,6 10 3 0,0
11.08.2018 10:00:00 20,4 8,8 21,6 21,3 21,7 22,1 16 9 29 16 WSW 1019,3 60 10 0,0
11.08.2018 09:00:00 18,1 9,4 18,5 19,8 21,6 22,1 11 6 22 12 S 1019,5 10 1 0,0
11.08.2018 08:00:00 16,9 9,9 17,2 18,9 21,8 22,1 13 7 24 13 SSW 1019,4 10 9 0,0
11.08.2018 07:00:00 14,7 10,0 13,7 18,0 22,0 22,1 5 3 15 8 S 1019,5 10 18 0,0
11.08.2018 06:00:00 13,2 9,7 11,4 18,2 22,3 22,1 8 4 13 7 S 1019,8 50 0 0,0
11.08.2018 05:00:00 15,1 10,5 13,7 18,5 22,7 22,1 9 5 18 10 SSE 1020,0 10 0 0,0
11.08.2018 04:00:00 15,5 10,4 12,0 19,0 23,0 22,1 9 5 13 7 SSE 1020,6 10 0 0,0
11.08.2018 03:00:00 15,7 10,2 12,6 19,6 23,3 22,1 6 4 18 10 SE 1021,0 55 0 0,0
11.08.2018 02:00:00 16,1 10,2 14,2 20,1 23,7 22,2 8 4 15 8 SE 1021,6 55 0 0,0
11.08.2018 01:00:00 16,6 10,3 13,4 20,5 24,1 22,2 5 3 15 8 E 1021,9 55 0 0,0
11.08.2018 00:00:00 16,2 11,6 14,4 20,7 24,5 22,2 9 5 15 8 ESE 1021,9 55 0 0,0
10.08.2018 23:00:00 16,0 9,6 12,2 21,5 25,0 22,2 9 5 13 7 E 1022,2 60 0 0,0
10.08.2018 22:00:00 18,4 7,6 13,5 22,7 25,4 22,2 3 2 5 3 ESE 1022,1 55 0 0,0
10.08.2018 21:00:00 21,8 6,8 19,2 24,1 25,7 22,2 6 3 15 8 NNW 1021,9 65 19 0,0
10.08.2018 20:00:00 22,7 6,8 21,9 25,5 25,9 22,2 13 7 22 12 WNW 1021,6 10 60 0,0
10.08.2018 19:00:00 23,5 7,2 24,3 26,5 26,1 22,2 16 9 29 16 WNW 1021,4 10 60 0,0
10.08.2018 18:00:00 23,9 7,2 25,4 27,9 26,0 22,2 16 9 38 21 WNW 1021,6 10 51 0,0
10.08.2018 17:00:00 23,8 7,8 26,8 29,1 25,7 22,2 14 7 38 21 WNW 1021,7 60 50 0,0
10.08.2018 16:00:00 22,7 8,5 24,1 29,3 25,3 22,2 22 12 34 18 W 1022,0 60 36 0,0
10.08.2018 15:00:00 23,5 8,7 28,5 28,4 24,8 22,2 18 10 35 19 W 1021,6 10 41 0,0
10.08.2018 14:00:00 22,7 9,8 26,8 26,3 24,5 22,2 18 10 35 19 WSW 1021,6 10 27 0,0
10.08.2018 13:00:00 21,0 10,5 22,5 24,8 24,3 22,2 24 13 36 20 W 1021,2 60 6 0,0

tt = temperature
td = dewpoint
tt 5cm = temperature 5cm
tt -5cm = temperature -5cm
tt -20cm = temperature -20cm
tt -100cm = temperature -100cm
ff = wind speed
fx = gusts
dd = wind direction
ppp = reduced air pressure
vv = visibility
sd = sunshine duration
rr = precipitation

Next stations